Location: Palomar Mountain Lodge
(33.3110°N, 116.8495°W)
Time: 01:48:14
(UTC-08:00)

Daily predictions for brighter satellites

Satellite Brightness Start Highest point End
(mag) Time Altitude Azimuth Time Altitude Azimuth Time Altitude Azimuth
SL-16 R/B 4.2 03:39:13 23° ENE 03:39:13 23° ENE 03:43:27 10° ESE
Atlas 2A Centaur Rocket 4.5 04:03:21 22° SSE 04:03:21 22° SSE 04:05:03 10° ESE
USA 229 DEB 4.3 04:00:49 49° NNE 04:01:54 53° NE 04:08:56 10° SE
USA 229 4.4 04:00:52 48° NNE 04:02:00 52° NE 04:09:01 10° SE
Cosmos 2333 Rocket 4.4 04:41:50 11° SSW 04:41:50 11° SSW 04:42:09 10° SSW
Cosmos 1743 Rocket 4.5 04:42:14 39° SSE 04:42:14 39° SSE 04:45:00 10° S
DELTA 2 R/B (1) 3.4 04:45:41 75° WSW 04:46:09 89° NNW 04:51:44 10° ENE
COSMO-SKYMED 1 3.5 04:45:58 10° SSE 04:50:07 47° ENE 04:53:20 16° N
Cosmos 1538 Rocket 4.4 04:53:48 17° N 04:57:58 62° ENE 05:03:13 10° SSE
Cosmos 304 Rocket 3.6 05:00:38 54° NW 05:01:40 76° WSW 05:06:25 10° S
GPS 2-05 Rocket1 3.7 05:03:05 40° NE 05:03:05 40° NE 05:05:27 10° ENE
Ariane Rocket 3.6 05:01:05 10° NNE 05:06:07 59° ESE 05:11:07 10° S
Cosmos 1500 Rocket 3.4 05:05:52 48° NNW 05:06:59 69° W 05:11:25 10° S
Cosmos 2233 Rocket 4.1 05:01:29 10° SSW 05:07:30 51° W 05:13:37 10° N
Cosmos 1328 3.6 05:06:42 54° NNW 05:07:31 81° W 05:11:30 10° S
CZ-3 R/B 4.4 05:03:21 22° WSW 05:08:58 25° WSW 05:16:53 10° S
Cosmos 2227 4.0 05:03:53 10° SSW 05:09:28 73° WNW 05:15:05 10° NNE
ISS -3.4 05:14:39 77° N 05:14:46 79° NE 05:17:59 10° SE
Cosmos 2237 Rocket 4.1 05:19:58 13° SW 05:19:58 13° SW 05:20:56 10° SW
OAO 2 Rocket 3.1 05:17:32 40° W 05:19:17 88° SSW 05:24:13 10° ESE
ATLAS 2A CENTAUR R/B 4.5 05:05:54 23° W 05:19:40 56° SSW 05:25:11 10° ESE
SKYMED 3 4.4 05:15:48 10° S 05:20:06 72° WSW 05:23:44 15° NNW
Thor Agena Rocket 4.3 05:18:16 10° SSW 05:22:50 30° W 05:23:07 30° W
SL-16 R/B 2.6 05:21:11 30° WNW 05:23:17 42° WSW 05:28:33 10° S
ATLAS 2A CENTAUR R/B 3.4 05:21:30 22° SW 05:23:18 30° SSW 05:25:31 10° SE
DMSP B5D1-3 4.5 05:18:33 10° SSE 05:23:40 89° ENE 05:28:47 10° NNW
ATLAS 3B CENTAUR R/B 4.3 05:24:12 10° SW 05:29:42 43° SSE 05:44:06 10° E
PAYLOAD A 4.5 05:25:26 10° NNE 05:30:20 60° E 05:35:01 10° S
Cosmos 1703 4.0 05:27:06 10° N 05:30:57 53° E 05:34:47 10° SSE
Cosmos 2034 Rocket 4.1 05:25:27 10° S 05:31:36 77° E 05:37:49 10° N
Meteor 1-28 Rocket 3.0 05:28:16 10° S 05:32:01 82° W 05:35:46 10° NNW
Cosmos 1271 Rocket 3.3 05:31:53 10° SW 05:35:22 33° WNW 05:38:50 10° NNW
SKYMED 2 3.9 05:34:04 10° S 05:38:10 42° W 05:41:58 12° NNW
Cosmos 1626 3.1 05:35:18 10° N 05:38:55 49° E 05:42:31 10° SSE
Gbstr 26 Del rocket 3.7 05:36:13 10° SW 05:41:18 82° SE 05:47:42 10° NE
Cosmos 2058 2.9 05:37:55 10° NNW 05:41:57 55° W 05:45:59 10° S
Cosmos 773 Rocket 3.9 05:38:44 10° NNW 05:44:00 73° WSW 05:49:16 10° S
Cosmos 1513 Rocket 4.5 05:39:32 10° SSW 05:45:44 71° W 05:52:06 10° N
YAOGAN 1 4.1 05:43:15 10° NNE 05:47:20 40° E 05:51:23 10° S
Cosmos 1184 Rocket 3.7 05:44:21 10° N 05:47:36 51° E 05:50:49 10° SSE
OPS 8737 4.4 05:45:06 10° SSW 05:48:43 80° ESE 05:51:53 10° NNE
Cosmos 2221 2.9 05:45:53 10° SSW 05:49:56 38° W 05:53:58 10° N
Cosmos 1340 Rocket 3.1 05:46:49 10° NNW 05:50:33 42° W 05:54:18 10° SSW
SL-14 R/B 4.4 05:52:39 13° NW 05:55:24 25° W 05:58:43 10° SW
Cosmos 292 Rocket 3.8 05:52:54 10° NNW 05:57:41 88° ENE 06:02:30 10° SSE
Cosmos 1666 Rocket 3.7 05:54:06 10° N 05:58:35 81° E 06:03:02 10° S
Tiangong 2 1.7 05:57:48 17° W 05:59:45 36° NNW 06:02:42 10° NE
Cosmos 1464 Rocket 4.3 05:55:10 10° SSW 06:01:07 43° W 06:07:03 10° N
Helios 1B rocket 4.1 05:59:53 10° SE 06:03:37 35° ENE 06:07:22 10° N
Cosmos 1943 3.7 05:58:48 10° NNW 06:04:27 64° ENE 06:10:03 10° SSE
Cosmos 1356 Rocket 3.4 06:00:40 10° NNW 06:04:44 61° W 06:08:51 10° S
APEX 3.1 06:00:49 10° SSW 06:05:07 88° ESE 06:08:30 10° NNE
SMAP 3.2 06:02:00 10° NNE 06:06:40 83° E 06:11:19 10° S
NOSS 3-1 (A) 4.2 05:58:55 10° NW 06:06:46 75° WSW 06:15:13 10° SSE
ERBS 3.1 06:06:37 12° WNW 06:09:25 35° SW 06:12:33 10° SSE
Cosmos 2344 3.6 06:04:28 10° SW 06:12:09 74° WNW 06:20:26 10° NNE
SJ-7 4.3 06:08:38 10° N 06:12:40 84° W 06:16:43 10° SSW
CORIOLIS 4.4 06:07:52 10° NNE 06:13:18 76° ESE 06:18:42 10° S
ATLAS 2AS CENTAUR R/B 4.1 06:07:57 10° NNW 06:15:24 40° NE 06:22:20 10° ESE
Cosmos 1908 3.6 06:18:37 10° SSW 06:22:13 41° W 06:25:52 10° N
SPOT 3 Rocket 3.6 06:17:41 10° NNE 06:22:55 86° WNW 06:28:07 10° SSW
Cosmos 2263 Rocket 2.3 06:17:31 10° SW 06:23:04 57° WNW 06:28:41 10° NNE
USA 234 4.1 06:20:36 10° ESE 06:26:49 48° NE 06:33:03 10° NNW
Cosmos 1603 4.4 06:22:30 10° NW 06:27:28 33° WSW 06:32:28 10° SSW
